Fountain, MN

8:10 PM CST on February 06, 2016 (GMT -0600)
Preston

Weather History for KFKA - March, 2014

Change the Weather History Date:

Saturday, March 8, 2014

  Actual Average (KRST) Record (KRST)
Temperature  
Mean Temperature 21 °F 29 °F  
Max Temperature 29 °F 36 °F 68 °F (2000)
Min Temperature 13 °F 21 °F -8 °F (2008)
Degree Days  
Heating Degree Days 44 36  
Month to date heating degree days 303  
Since 1 July heating degree days 6164  
Cooling Degree Days 0 0  
Month to date cooling degree days 0  
Year to date cooling degree days 0  
Moisture  
Dew Point 18 °F    
Average Humidity 77    
Maximum Humidity 95    
Minimum Humidity 62    
Precipitation  
Precipitation 0.00 in 0.05 in 0.69 in (1990)
Month to date precipitation 0.39  
Year to date precipitation 2.08  
Snow  
Snow 0.00 in 0.40 in 6.60 in (1961)
Month to date snowfall 2.8  
Since 1 July snowfall 42.7  
Snow Depth -    
Sea Level Pressure  
Sea Level Pressure 30.21 in    
Wind  
Wind Speed 10 mph (NNW)    
Max Wind Speed 16 mph    
Max Gust Speed 20 mph    
Visibility 10 miles    
Events      
T = Trace of Precipitation, MM = Missing Value Source: NWS Daily Summary

Daily Weather History Graph

Daily Weather History Graph

Search for Another Location

Airport or City:

Trip Planner

Search our weather history database for the weather conditions in past years. The results will help you decide how hot, cold, wet, or windy it might be!

Date:

Astronomy

Mar. 08, 2014 Rise Set
Actual Time 6:33 AM CST 6:06 PM CST
Civil Twilight 6:04 AM CST 6:34 PM CST
Nautical Twilight 5:31 AM CST 7:08 PM CST
Astronomical Twilight 4:57 AM CST 7:41 PM CST
Moon 11:03 AM CST (3/8) 1:16 AM CST (3/8)
Length of Visible Light 12h 30m
Length of Day
11h 33m
First Quarter, 52% of the Moon is Illuminated
Mar 8
First Quarter
Mar 16
Full
Mar 23
Last Quarter
Mar 30
New
Apr 7
First Quarter

Hourly Weather History & Observations

Time (CST) Temp. Windchill Dew Point Humidity Pressure Visibility Wind Dir Wind Speed Gust Speed Precip Events Conditions
12:10 AM 27.5 °F 15.4 °F 26.2 °F 95% 30.09 in 4.0 mi North 16.1 mph 19.6 mph N/A   Overcast
12:31 AM 27.5 °F 17.4 °F 26.1 °F 94% 30.09 in 5.0 mi North 11.5 mph - N/A   Overcast
12:51 AM 27.3 °F 17.7 °F 25.7 °F 94% 30.10 in 5.0 mi North 10.4 mph - N/A   Overcast
1:10 AM 27.1 °F 17.5 °F 25.5 °F 94% 30.11 in 7.0 mi North 10.4 mph - N/A   Overcast
1:31 AM 27.1 °F 18.2 °F 24.8 °F 91% 30.12 in 10.0 mi North 9.2 mph - N/A   Overcast
1:50 AM 27.0 °F 17.3 °F 23.9 °F 88% 30.12 in 10.0 mi North 10.4 mph - N/A   Overcast
2:11 AM 26.8 °F 17.7 °F 23.9 °F 89% 30.12 in 10.0 mi North 9.2 mph - N/A   Overcast
2:31 AM 26.6 °F 16.8 °F 23.5 °F 88% 30.13 in 10.0 mi North 10.4 mph - N/A   Overcast
2:50 AM 26.6 °F 17.5 °F 23.4 °F 88% 30.13 in 10.0 mi North 9.2 mph - N/A   Overcast
3:11 AM 26.6 °F 16.8 °F 23.0 °F 86% 30.13 in 10.0 mi North 10.4 mph - N/A   Overcast
3:30 AM 26.4 °F 18.0 °F 22.8 °F 86% 30.13 in 10.0 mi North 8.1 mph - N/A   Overcast
3:51 AM 26.2 °F 17.8 °F 22.5 °F 86% 30.14 in 10.0 mi NNW 8.1 mph - N/A   Overcast
4:11 AM 26.1 °F 17.6 °F 22.1 °F 85% 30.14 in 10.0 mi North 8.1 mph - N/A   Overcast
4:31 AM 25.7 °F 16.4 °F 21.7 °F 85% 30.15 in 10.0 mi North 9.2 mph - N/A   Overcast
4:51 AM 25.7 °F 16.4 °F 21.2 °F 83% 30.16 in 10.0 mi North 9.2 mph - N/A   Overcast
5:10 AM 25.5 °F 17.8 °F 21.2 °F 84% 30.16 in 10.0 mi North 6.9 mph - N/A   Overcast
5:31 AM 25.2 °F 16.5 °F 20.8 °F 84% 30.17 in 10.0 mi North 8.1 mph - N/A   Overcast
5:51 AM 25.2 °F 15.7 °F 20.8 °F 84% 30.18 in 10.0 mi North 9.2 mph - N/A   Overcast
6:10 AM 25.0 °F 18.1 °F 20.8 °F 84% 30.19 in 10.0 mi North 5.8 mph - N/A   Overcast
6:31 AM 24.8 °F 19.1 °F 20.8 °F 85% 30.20 in 10.0 mi North 4.6 mph - N/A   Overcast
6:51 AM 25.0 °F 18.1 °F 20.8 °F 84% 30.21 in 10.0 mi North 5.8 mph - N/A   Overcast
7:10 AM 25.2 °F 19.5 °F 19.9 °F 81% 30.21 in 10.0 mi NE 4.6 mph - N/A   Overcast
7:31 AM 24.8 °F 16.1 °F 18.3 °F 76% 30.21 in 10.0 mi NE 8.1 mph - N/A   Overcast
7:51 AM 24.8 °F 16.1 °F 17.6 °F 74% 30.22 in 10.0 mi NE 8.1 mph - N/A   Overcast
8:10 AM 24.6 °F 16.7 °F 17.4 °F 74% 30.22 in 10.0 mi NE 6.9 mph - N/A   Overcast
8:30 AM 24.4 °F 14.9 °F 16.2 °F 71% 30.23 in 10.0 mi NE 9.2 mph - N/A   Overcast
8:51 AM 24.4 °F 14.9 °F 15.3 °F 68% 30.24 in 10.0 mi NE 9.2 mph - N/A   Mostly Cloudy
9:10 AM 24.6 °F 16.7 °F 15.4 °F 68% 30.25 in 10.0 mi NE 6.9 mph - N/A   Mostly Cloudy
9:31 AM 25.3 °F 16.7 °F 15.6 °F 67% 30.25 in 10.0 mi NE 8.1 mph - N/A   Scattered Clouds
9:51 AM 25.2 °F 18.3 °F 15.4 °F 67% 30.25 in 10.0 mi NE 5.8 mph - N/A   Clear
10:11 AM 25.3 °F 16.7 °F 15.4 °F 66% 30.26 in 10.0 mi NNE 8.1 mph - N/A   Clear
10:31 AM 25.9 °F 18.2 °F 14.9 °F 63% 30.26 in 10.0 mi North 6.9 mph - N/A   Clear
10:51 AM 26.4 °F 18.0 °F 15.6 °F 64% 30.26 in 10.0 mi NNW 8.1 mph - N/A   Clear
11:11 AM 26.8 °F 20.2 °F 16.2 °F 64% 30.26 in 10.0 mi North 5.8 mph - N/A   Clear
11:30 AM 27.3 °F 20.9 °F 16.2 °F 63% 30.27 in 10.0 mi North 5.8 mph - N/A   Clear
11:51 AM 27.5 °F 19.3 °F 16.0 °F 62% 30.26 in 10.0 mi NNW 8.1 mph - N/A   Clear
12:11 PM 28.0 °F 20.8 °F 16.5 °F 62% 30.26 in 10.0 mi NNW 6.9 mph - N/A   Clear
12:30 PM 28.8 °F 20.2 °F 17.6 °F 63% 30.25 in 10.0 mi North 9.2 mph - N/A   Clear
12:51 PM 29.3 °F 20.2 °F 17.6 °F 62% 30.24 in 10.0 mi North 10.4 mph - N/A   Scattered Clouds
1:11 PM 28.8 °F 20.2 °F 18.7 °F 66% 30.23 in 10.0 mi NW 9.2 mph - N/A   Scattered Clouds
1:31 PM 29.1 °F 20.0 °F 19.4 °F 67% 30.23 in 10.0 mi WNW 10.4 mph - N/A   Scattered Clouds
1:51 PM 29.1 °F 20.6 °F 19.2 °F 67% 30.23 in 10.0 mi NW 9.2 mph - N/A   Mostly Cloudy
2:10 PM 29.5 °F 19.9 °F 18.9 °F 65% 30.23 in 10.0 mi NNW 11.5 mph - N/A   Mostly Cloudy
2:31 PM 29.3 °F 19.6 °F 19.0 °F 66% 30.23 in 10.0 mi NW 11.5 mph 17.3 mph N/A   Scattered Clouds
2:51 PM 28.9 °F 19.8 °F 18.5 °F 65% 30.23 in 10.0 mi NW 10.4 mph - N/A   Clear
3:10 PM 28.8 °F 19.5 °F 18.3 °F 65% 30.22 in 10.0 mi NW 10.4 mph - N/A   Clear
3:31 PM 28.4 °F 18.5 °F 18.7 °F 67% 30.23 in 10.0 mi WNW 11.5 mph - N/A   Clear
3:51 PM 28.2 °F 18.9 °F 18.7 °F 67% 30.23 in 10.0 mi NW 10.4 mph - N/A   Clear
4:11 PM 27.3 °F 17.7 °F 18.9 °F 70% 30.23 in 10.0 mi WNW 10.4 mph - N/A   Clear
4:31 PM 25.9 °F 16.6 °F 18.3 °F 73% 30.23 in 10.0 mi WNW 9.2 mph - N/A   Scattered Clouds
4:50 PM 25.7 °F 16.4 °F 18.5 °F 74% 30.24 in 10.0 mi WNW 9.2 mph - N/A   Mostly Cloudy
5:11 PM 25.9 °F 16.6 °F 18.3 °F 73% 30.24 in 10.0 mi NW 9.2 mph - N/A   Overcast
5:30 PM 25.3 °F 16.0 °F 18.0 °F 74% 30.24 in 10.0 mi WNW 9.2 mph - N/A   Overcast
5:51 PM 23.9 °F 14.2 °F 17.1 °F 75% 30.25 in 10.0 mi WNW 9.2 mph - N/A   Mostly Cloudy
6:11 PM 23.2 °F 15.0 °F 16.7 °F 76% 30.24 in 10.0 mi NW 6.9 mph - N/A   Mostly Cloudy
6:31 PM 22.6 °F 14.3 °F 16.9 °F 79% 30.25 in 10.0 mi West 6.9 mph - N/A   Scattered Clouds
6:51 PM 21.2 °F 12.6 °F 16.0 °F 80% 30.24 in 10.0 mi West 6.9 mph - N/A   Clear
7:11 PM 21.0 °F 12.4 °F 15.8 °F 80% 30.23 in 10.0 mi West 6.9 mph - N/A   Clear
7:31 PM 20.1 °F 9.5 °F 15.3 °F 81% 30.24 in 10.0 mi West 9.2 mph - N/A   Clear
7:50 PM 19.2 °F 9.3 °F 14.2 °F 81% 30.24 in 10.0 mi West 8.1 mph - N/A   Clear
8:11 PM 17.6 °F 8.2 °F 12.9 °F 82% 30.23 in 10.0 mi WNW 6.9 mph - N/A   Clear
8:31 PM 17.6 °F 8.2 °F 12.7 °F 81% 30.23 in 10.0 mi West 6.9 mph - N/A   Clear
8:50 PM 17.1 °F 5.8 °F 12.2 °F 81% 30.24 in 10.0 mi West 9.2 mph - N/A   Clear
9:11 PM 16.2 °F 4.7 °F 11.8 °F 83% 30.23 in 10.0 mi West 9.2 mph - N/A   Clear
9:30 PM 15.6 °F 3.2 °F 11.7 °F 84% 30.24 in 10.0 mi West 10.4 mph - N/A   Clear
9:51 PM 14.7 °F 2.1 °F 10.9 °F 85% 30.24 in 10.0 mi West 10.4 mph - N/A   Clear
10:11 PM 14.0 °F 2.9 °F 10.4 °F 86% 30.23 in 10.0 mi West 8.1 mph - N/A   Clear
10:31 PM 13.8 °F 2.7 °F 10.4 °F 86% 30.23 in 10.0 mi West 8.1 mph - N/A   Clear
10:50 PM 14.4 °F 3.3 °F 11.1 °F 87% 30.22 in 10.0 mi WSW 8.1 mph - N/A   Clear
11:11 PM 13.1 °F 1.8 °F 9.9 °F 87% 30.22 in 10.0 mi WSW 8.1 mph - N/A   Clear
11:31 PM 15.1 °F 5.2 °F 11.7 °F 86% 30.20 in 10.0 mi SW 6.9 mph - N/A   Clear
11:51 PM 14.0 °F 3.9 °F 10.4 °F 86% 30.20 in 10.0 mi WSW 6.9 mph - N/A   Clear